Location: Arroyo Grande
(40.2671°N, 4.2512°W)
Time: 15:32:54
(UTC+00:00)

Cosmos 2333 Rocket - Pass Details

Date: 03 February 2023
Orbit: 838 x 864 km, 70.8° (Epoch: 21 March)

Event Time Altitude Azimuth Distance (km) Brightness Sun altitude
Rises 18:09:11 0° 169° (SSE) 3,373 5.4 -6.5°
Reaches altitude 10° 18:11:59 10° 156° (SSE) 2,445 4.5 -7.1°
Maximum altitude 18:16:31 26° 102° (ESE) 1,612 3.2 -7.9°
Drops below altitude 10° 18:21:04 10° 48° (NE) 2,469 4.1 -8.7°
Enters shadow 18:22:25 - 41° (NE) 2,901 4.5 -9.0°
